Tracking 29892 objects as of 21-Nov-2024
HD Live streaming from Space Station
objects crossing your sky now

STARLINK-1645

Track STARLINK-1645 now!
10-day predictions
STARLINK-1645 is classified as:


NORAD ID: 47622
Int'l Code: 2021-012C
Perigee: 552.4 km
Apogee: 556.3 km
Inclination: 53.1 °
Period: 95.6 minutes
Semi major axis: 6925 km
RCS: Unknown
Launch date: February 16, 2021
Source: United States (US)
Launch site: AIR FORCE EASTERN TEST RANGE (AFETR)
Your satellite tracking list
Your tracking list is empty




NASA's NSSDC Master Catalog

Two Line Element Set (TLE):
1 47622U 21012C   24326.19488800  .00007456  00000-0  51889-3 0  9998
2 47622  53.0508  37.2051 0002767 291.9849  68.0846 15.06403293208102
Source of the keplerian elements: AFSPC